User: anonymous   Login
Location: Mactaquac Provincial Park
(45.9573°N, 66.8897°W)
Time: 00:30:15
(UTC-04:00)
Language:

Cosmos 1766 - Orbit

View from above orbital plane
View from above orbital plane
View from above satellite
View from above satellite

Ground track
Ground track

The orbit data is extracted from the following two-line orbital elements,

1 16881U 86055A   17052.53798374  .00000256  00000-0  13858-4 0  9991
2 16881  82.5078 136.8203 0016312 134.5060 225.7506 15.09956497663985
Epoch (UTC): 21 February 2017 12:54:41
Eccentricity: 0.0016312
inclination: 82.5078°
perigee height: 525 km
apogee height: 547 km
right ascension of ascending node: 136.8203°
argument of perigee: 134.5060°
revolutions per day: 15.09956497
mean anomaly at epoch: 225.7506°
orbit number at epoch: 66398

The dashed part of the orbit path shows where the satellite is in the earth's shadow,  

DLR